Location: Unspecified
(51.5147°N, 7.4673°E)
Time: 03:55:01
(UTC+01:00)

Vanguard 1 Rocket - Pass Details

Date: 22 February 2026
Orbit: 653 x 4214 km, 34.3° (Epoch: 5 March)

Event Time Altitude Azimuth Distance (km) Brightness Sun altitude
Rises 12:56:29 0° 219° (SW) 3,922 11.4 28.3°
Reaches altitude 10° 12:59:15 10° 205° (SSW) 3,303 11.6 28.3°
Maximum altitude 13:06:05 26° 152° (SSE) 3,072 11.3 28.2°
Drops below altitude 10° 13:17:02 10° 104° (ESE) 5,487 11.5 28.0°
Sets 13:23:27 0° 95° (E) 7,149 11.9 27.8°
